• Join FlightAware (Why Join?)
  • Login
  • US Flag GB Flag 
07:12 EST


 

Airport Tracker/Info


-or-


 

Live Flight TrackerFlight Track Log ✈ SKW6306 ✈ 28-Jun-2013 ✈ KDEN - KPSP

Flight Track Log - Related Links

Times and Time Zones

All times are in EDT time to prevent confusion due to time zone crossing. See the SKW6306 flight status page for this flight to view local times or setup timezone preferences in your user account.

Time Position Orientation Groundspeed Altitude Reporting Facility
EDT Latitude Longitude Course Direction KTS MPH feet Rate Location/Type
21:37 39.8667 -104.6000 108° East 172 198 6,500  Level Denver TRACON
21:38 39.8500 -104.5333 108° East 223 257 7,800 1,355 Climbing Denver TRACON
21:39 39.8139 -104.4408 117° Southeast 260 299 9,300 1,455 Climbing Denver Center
21:40 39.7542 -104.3822 143° Southeast 293 337 11,000 1,548 Climbing Denver Center
21:41 39.6633 -104.3806 179° South 302 348 12,500 1,355 Climbing Denver Center
21:42 39.5700 -104.3778 179° South 329 379 13,800 1,403 Climbing Denver Center
21:43 39.4756 -104.3717 177° South 339 390 15,400 1,306 Climbing Denver Center
21:44 39.3719 -104.3669 178° South 345 397 16,500 919 Climbing Denver Center
21:45 39.2706 -104.3589 176° South 366 421 17,300 629 Climbing Denver Center
21:46 39.1606 -104.3669 183° South 381 438 17,800 726 Climbing Denver Center
21:47 39.0508 -104.3750 183° South 380 437 18,800 919 Climbing Denver Center
21:48 38.9439 -104.3842 184° South 395 455 19,700 968 Climbing Denver Center
21:49 38.8192 -104.3922 183° South 401 461 20,800 1,016 Climbing Denver Center
21:50 38.7131 -104.3975 182° South 400 460 21,800 732 Climbing Denver Center
21:51 38.5900 -104.4072 184° South 396 456 22,300 488 Climbing Denver Center
21:52 38.4833 -104.4144 183° South 400 460 22,800 484 Climbing Denver Center
21:53 38.3544 -104.4253 184° South 411 473 23,300 484 Climbing Denver Center
21:54 38.2753 -104.5078 219° Southwest 399 459 23,800 484 Climbing Denver Center
21:55 38.2189 -104.6489 243° Southwest 398 458 24,300 484 Climbing Denver Center
21:56 38.1594 -104.7636 237° Southwest 404 465 24,800 532 Climbing Denver Center
21:57 38.0919 -104.9053 239° Southwest 415 478 25,400 532 Climbing Denver Center
21:58 38.0592 -105.0383 253° West 416 479 25,900 484 Climbing Denver Center
21:59 38.0200 -105.1958 253° West 420 483 26,400 484 Climbing Denver Center
22:00 37.9878 -105.3311 253° West 420 483 26,900 532 Climbing Denver Center
22:01 37.9492 -105.4881 253° West 419 482 27,500 532 Climbing Denver Center
22:03 37.9156 -105.6225 252° West 418 481 28,000 435 Climbing Denver Center
22:04 37.8825 -105.7567 253° West 416 479 28,400 435 Climbing Denver Center
22:05 37.8433 -105.9125 252° West 417 480 28,900 387 Climbing Denver Center
22:06 37.8097 -106.0481 253° West 420 483 29,200 339 Climbing Denver Center
22:07 37.7728 -106.1928 252° West 421 484 29,600 339 Climbing Denver Center
22:08 37.7331 -106.3503 252° West 421 484 29,900 290 Climbing Denver Center
22:09 37.6981 -106.4872 252° West 426 490 30,200 290 Climbing Denver Center
22:10 37.6558 -106.6478 252° West 431 496 30,500 293 Climbing Denver Center
22:11 37.6203 -106.7847 252° West 431 496 30,800 293 Climbing Denver Center
22:12 37.5786 -106.9456 252° West 431 496 31,100 290 Climbing Denver Center
22:13 37.5422 -107.0822 251° West 432 497 31,400 435 Climbing Denver Center
22:14 37.5003 -107.2428 252° West 431 496 32,000 290 Climbing Denver Center
22:15 37.4656 -107.3772 252° West 423 487 32,000  Level Denver Center
22:16 37.4289 -107.5131 251° West 427 491 32,000  Level Denver Center
22:17 37.3850 -107.6742 251° West 434 499 32,000  Level Denver Center
22:18 37.3472 -107.8122 251° West 437 503 32,000  Level Denver Center
22:19 37.3047 -107.9761 252° West 439 505 32,000  Level Denver Center
22:20 37.2661 -108.1142 251° West 440 506 32,000  Level Denver Center
22:21 37.2206 -108.2769 251° West 443 510 32,000  Level Denver Center
22:22 37.1828 -108.4178 251° West 445 512 32,000  Level Denver Center
22:23 37.1369 -108.5800 251° West 442 509 32,000  Level Denver Center
22:24 37.0869 -108.7144 245° Southwest 448 516 32,000  Level Denver Center
22:25 37.0239 -108.8667 243° Southwest 446 513 32,000  Level Denver Center
22:26 36.9853 -109.0078 251° West 449 517 32,000  Level Denver Center
22:27 36.9397 -109.1728 251° West 451 519 32,000  Level Denver Center
22:28 36.9011 -109.3125 251° West 447 514 32,000  Level Denver Center
22:29 36.8617 -109.4556 251° West 453 521 32,000  Level Denver Center
22:30 36.8139 -109.6217 250° West 455 524 32,000  Level Denver Center
22:31 36.7733 -109.7644 251° West 457 526 32,000  Level Denver Center
22:32 36.7264 -109.9272 250° West 451 519 32,000  Level Denver Center
22:33 36.6861 -110.0675 250° West 449 517 32,000  Level Denver Center
22:34 36.6533 -110.2133 254° West 452 520 32,000  Level Denver Center
22:35 36.6289 -110.3958 261° West 448 516 32,000  Level Denver Center
22:37 36.6083 -110.5497 261° West 450 518 32,000  Level Denver Center
22:38 36.5897 -110.7019 261° West 446 513 32,000  Level Denver Center
22:39 36.5667 -110.8550 259° West 448 516 32,000  Level Denver Center
22:40 36.5264 -111.0011 251° West 444 511 32,000  Level Denver Center
22:41 36.4756 -111.1456 246° West 450 518 32,000 -244 Level Denver Center
22:42 36.4256 -111.2919 247° West 456 525 31,500 -488 Descending Denver Center
22:43 36.3744 -111.4403 247° West 463 533 31,000 -532 Descending Denver Center
22:44 36.3131 -111.6208 247° West 471 542 30,400 -488 Descending Denver Center
22:45 36.2597 -111.7728 247° West 477 549 30,000 -195 Descending Denver Center
22:46 36.2075 -111.9217 247° West 474 545 30,000  Level Denver Center
22:47 36.1564 -112.0686 247° West 467 537 30,000  Level Denver Center
22:48 36.1006 -112.2261 246° West 464 534 30,000  Level Los Angeles Center
22:49 36.0522 -112.3589 246° West 457 526 30,000  Level Los Angeles Center
22:50 35.9642 -112.5125 235° Southwest 457 526 30,000  Level Los Angeles Center
22:51 35.9014 -112.6194 234° Southwest 456 525 30,000  Level Los Angeles Center
22:52 35.8417 -112.7194 234° Southwest 456 525 30,000  Level Los Angeles Center
22:53 35.7372 -112.8956 234° Southwest 460 529 30,000  Level Los Angeles Center
22:54 35.6542 -113.0314 233° Southwest 459 528 30,000  Level Los Angeles Center
22:55 35.5778 -113.1572 233° Southwest 458 527 30,000  Level Los Angeles Center
22:56 35.5000 -113.2858 233° Southwest 464 534 30,000  Level Los Angeles Center
22:57 35.4358 -113.3939 234° Southwest 463 533 30,000  Level Los Angeles Center
22:58 35.3431 -113.5439 233° Southwest 466 536 30,000  Level Los Angeles Center
22:59 35.2669 -113.6694 233° Southwest 464 534 30,000  Level Los Angeles Center
23:00 35.1908 -113.7950 233° Southwest 464 534 30,000  Level Los Angeles Center
23:01 35.0978 -113.9450 233° Southwest 460 529 30,000  Level Los Angeles Center
23:02 35.0194 -114.0692 232° Southwest 460 529 30,000  Level Los Angeles Center
23:03 34.9406 -114.1972 233° Southwest 466 536 30,000  Level Los Angeles Center
23:04 34.8622 -114.3203 232° Southwest 458 527 30,000  Level Los Angeles Center
23:05 34.7842 -114.4439 232° Southwest 459 528 30,000  Level Los Angeles Center
23:06 34.7047 -114.5675 232° Southwest 461 531 30,000  Level Los Angeles Center
23:07 34.6286 -114.6803 231° Southwest 463 533 30,000 -634 Level Los Angeles Center
23:08 34.5319 -114.8264 231° Southwest 464 534 28,700 -1,645 Descending Los Angeles Center
23:09 34.4517 -114.9478 231° Southwest 463 533 26,600 -2,000 Descending Los Angeles Center
23:11 34.3753 -115.0642 232° Southwest 446 513 24,600 -1,951 Descending Los Angeles Center
23:12 34.3000 -115.1761 231° Southwest 433 498 22,600 -1,935 Descending Los Angeles Center
23:13 34.2242 -115.2892 231° Southwest 434 499 20,600 -1,268 Descending Los Angeles Center
23:14 34.1486 -115.4003 231° Southwest 431 496 20,000 -1,122 Descending Los Angeles Center
23:15 34.0933 -115.5175 240° Southwest 405 466 18,300 -2,371 Descending Los Angeles Center
23:16 34.0336 -115.6522 242° Southwest 382 440 15,100 -2,732 Descending Los Angeles Center
23:17 33.9839 -115.7597 241° Southwest 373 429 12,700 -2,049 Descending Los Angeles Center
23:18 33.9372 -115.8667 242° Southwest 368 423 10,900 -1,210 Descending Los Angeles Center
23:19 33.8986 -115.9556 242° Southwest 333 383 10,200 -1,707 Descending Los Angeles Center
23:20 33.8669 -116.0425 246° West 298 343 7,400 -1,805 Descending Los Angeles Center
23:21 33.8358 -116.1233 245° Southwest 283 326 6,500 -1,024 Descending Los Angeles Center
23:22 33.8097 -116.1903 245° Southwest 256 295 5,300 -1,063 Descending Los Angeles Center
23:23 33.8000 -116.3000 264° West 187 215 3,700 -993 Descending Southern California TRACON
23:24 33.7833 -116.3500 248° West 168 193 2,800 -600 Descending Southern California TRACON
23:25 33.7667 -116.4000 248° West 164 189 2,500 -600 Descending Southern California TRACON
23:26 33.7833 -116.4500 292° West 167 192 1,600 -900 Descending Southern California TRACON
23:27 33.8167 -116.5000 309° West 146 168 700 -818 Descending Southern California TRACON
23:29 33.8297 -116.5067 256° West  Level Estimated
23:36 33.8297 -116.5067 256° West  Level Estimated